Home > Weather > Ndjamena > Past weeks

Flag for Chad Past Weather in Ndjamena, Chad — Yesterday and Last 2 Weeks

Now
82 °F

Clear.


Feels Like: 89 °F
Forecast: 78 / 97 °F
Wind: 5 mph from Southwest

Location: Ndjamena

Current Time: Jun 30, 2016 at 12:42:13 AM

Latest Report: Jun 30, 2016 at 12:00 AM


Visibility: 10 mi

Pressure: 29.92 "Hg

Humidity: 79%

Dew Point: 75 °F

Location of NdjamenaLocation

Past Weather in Ndjamena — Graph

°F

Ndjamena Temperature Yesterday

Maximum temperature yesterday: 95 °F (at 3:00 PM)
Minimum temperature yesterday: 73 °F (at 5:00 AM)
Average temperature yesterday: 84 °F

High & Low Weather Summary for the Past Weeks

 TemperatureHumidityPressure
High100 °F (Jun 18, 2:00 PM)100% (Jun 15, 11:00 AM)30.09 "Hg (Jun 15, 11:00 AM)
Low70 °F (Jun 15, 11:00 AM)37% (Jun 18, 4:00 PM)29.56 "Hg (Jun 18, 4:00 PM)
Average84 °F70%29.89 "Hg
* Reported Jun 14 10:00 PM — Jun 29 10:00 PM, Ndjamena, Weather by CustomWeather, © 2016

Note: Actual official high and low records may vary slightly from our data, if they occured in-between our weather recording intervals... More about our weather records

Advertising

Ndjamena Weather History for the Previous 24 Hours

Scroll right to see more
 ConditionsComfort  
Time TempWeatherWind HumidityBarometerVisibility
10:00 PM
Wed, Jun 29
82 °FClear.3 mph79%29.92 "Hg10 mi
9:00 PM84 °FClear.6 mph79%29.92 "Hg10 mi
8:00 PM86 °FClear.8 mph66%29.89 "Hg10 mi
7:00 PM91 °FPassing clouds.5 mph56%29.86 "HgN/A
6:00 PM93 °FPassing clouds.No wind53%29.86 "HgN/A
5:00 PM93 °FPassing clouds.2 mph49%29.83 "HgN/A
4:00 PM95 °FPassing clouds.6 mph50%29.86 "HgN/A
3:00 PM95 °FPassing clouds.No wind53%29.89 "HgN/A
2:00 PM93 °FPassing clouds.3 mph53%29.89 "HgN/A
1:00 PM91 °FPassing clouds.3 mph56%29.95 "HgN/A
12:00 PM88 °FPassing clouds.5 mph66%29.95 "HgN/A
11:00 AM88 °FPassing clouds.8 mph59%29.95 "HgN/A
10:00 AM84 °FPassing clouds.7 mph66%29.95 "HgN/A
9:00 AM82 °FPassing clouds.2 mph70%29.95 "HgN/A
8:00 AM79 °FSunny.6 mph79%29.92 "Hg10 mi
7:00 AM75 °FPassing clouds.6 mph94%29.92 "HgN/A
6:00 AM73 °FSunny.6 mph94%29.92 "Hg10 mi
5:00 AM73 °FClear.7 mph94%29.89 "Hg10 mi
4:00 AM75 °FClear.8 mph89%29.92 "Hg10 mi
3:00 AM75 °FPassing clouds.7 mph89%29.92 "HgN/A
2:00 AM75 °FPassing clouds.7 mph89%29.92 "HgN/A
1:00 AM77 °FClear.10 mph83%29.92 "Hg10 mi
12:00 AM77 °FClear.No wind89%29.92 "Hg10 mi
Weather by CustomWeather, © 2016

See weather overviewHow to use our weather pages